This is the latest recevied weather packets stored in our database for station/object K0QED. If no packets are shown the sender has not sent any weather packets the latest 10 day(s).
| Time | Temp. | Humidity | Pressure | Rain* | Wind** | Luminosity | Snow |
|---|---|---|---|---|---|---|---|
| 1777413495 | 8.33° C | 72% | 1018.5 hPa | 0 mm | - | 195 W/m² | - |
| 1777413192 | 8.33° C | 70% | 1018.4 hPa | 0 mm | - | 406 W/m² | - |
| 1777412887 | 7.78° C | 71% | 1018.6 hPa | 0 mm | - | 408 W/m² | - |
| 1777412581 | 7.78° C | 73% | 1018.6 hPa | 0 mm | - | 247 W/m² | - |
| 1777412278 | 7.22° C | 74% | 1018.4 hPa | 0 mm | - | 208 W/m² | - |
| 1777411975 | 7.78° C | 73% | 1018.7 hPa | 0 mm | - | 190 W/m² | - |
| 1777411674 | 7.22° C | 72% | 1018.6 hPa | 0 mm | - | 315 W/m² | - |
| 1777411369 | 7.22° C | 71% | 1018.6 hPa | 0 mm | - | 139 W/m² | - |
| 1777411068 | 7.22° C | 72% | 1018.2 hPa | 0 mm | - | 144 W/m² | - |
| 1777410764 | 7.22° C | 72% | 1018.5 hPa | 0 mm | - | 201 W/m² | - |
| 1777410462 | 6.67° C | 72% | 1018.7 hPa | 0 mm | - | 125 W/m² | - |
| 1777410162 | 7.22° C | 72% | 1018.9 hPa | 0 mm | - | 127 W/m² | - |
| 1777409857 | 7.78° C | 70% | 1018.9 hPa | 0 mm | - | 104 W/m² | - |
| 1777409553 | 7.78° C | 68% | 1018.7 hPa | 0 mm | - | 112 W/m² | - |
| 1777409248 | 7.78° C | 68% | 1019 hPa | 0 mm | - | 124 W/m² | - |
| 1777408945 | 7.78° C | 66% | 1018.7 hPa | 0 mm | - | 147 W/m² | - |
| 1777408641 | 7.78° C | 66% | 1018.7 hPa | 0 mm | - | 164 W/m² | - |
| 1777408337 | 7.78° C | 65% | 1018.6 hPa | 0 mm | - | 204 W/m² | - |
| 1777408036 | 7.78° C | 67% | 1018.6 hPa | 0 mm | - | 166 W/m² | - |
| 1777407734 | 7.22° C | 65% | 1018.7 hPa | 0 mm | - | 129 W/m² | - |
| 1777407434 | 7.22° C | 64% | 1018.9 hPa | 0 mm | - | 138 W/m² | - |
| 1777407130 | 7.78° C | 63% | 1018.7 hPa | 0 mm | - | 154 W/m² | - |
| 1777406825 | 9.44° C | 62% | 1018.5 hPa | 0 mm | - | 138 W/m² | - |
| 1777406520 | 10.56° C | 61% | 1018.5 hPa | 0 mm | - | 186 W/m² | - |
| 1777406215 | 10.56° C | 62% | 1018.5 hPa | 0 mm | - | 260 W/m² | - |
* Rain latest hour (hover to see other rain measurements)
** Current wind speed in m/s (hover to see current wind gust speed)